sat.trackr.live / text

‹ back to catalog

STARLINK-34147

NORAD 63965 · 2025-099P

PAYLOAD ACTIVE UNKNOWN

§ Identity

Operator
Country
US
Launch date
2025-05-13
Launch site
AFETR
Launch vehicle
Mass (kg)
RCS (m²)

Purposes: comms

External: N2YO · Heavens-Above · Gunter

§ Orbital elements

Epoch: 2026-09-19T23:40:44.474304Z

Period
94.27 min
Inclination
42.9996°
Eccentricity
0.0001503
Mean motion
15.27598869 rev/d
Perigee alt
482.0 km
Apogee alt
484.0 km
Semi-major
6,861.1 km
B*
5.5964e-4
RAAN
158.7445°
Arg perigee
267.4603°
Mean anomaly
92.6077°
Rev number
7,705

§ Raw data

STARLINK-341471 63965U 25099P   26262.98662586  .00015179  00000+0  55964-3 0  99962 63965  42.9996 158.7445 0001503 267.4603  92.6077 15.27598869 77051

JSON: /api/v1/satellites/63965 · /tle

For live sub-satellite position, see the globe view (requires WebGL).

§ Visibility from observer

Set your observer location to see the next 7 days of passes ≥ 10°. The values pass through the URL so the page stays shareable.

No JS? Fill the form by hand. The geolocation button needs JavaScript.